Regional Weather Roundup
Issued by NWS Newport/Morehead, NC

Current Version | Previous Version | Text Only | Print | Product List | Glossary Off
Versions: 1 2 3 4 5 6 7 8 9 10 11 12 13 14 15 16 17 18 19 20 21 22 23 24 25 26 27 28 29 30 31 32 33 34 35 36 37 38 39 40 41 42 43 44 45 46 47 48 49 50
000 ASUS42 KMHX 071924 RWRMHX WEATHER ROUNDUP FOR EASTERN NORTH CAROLINA NATIONAL WEATHER SERVICE NEWPORT/MOREHEAD CITY NC 200 PM EST WED DEC 07 2016 NOTE: "FAIR" INDICATES FEW OR NO CLOUDS BELOW 12,000 FEET WITH NO SIGNIFICANT WEATHER AND/OR OBSTRUCTIONS TO VISIBILITY NCZ015>017-031-032-045>047-102-103-072000- NORTH COAST CITY SKY/WX TMP DP RH WIND PRES REMARKS EDENTON PTSUNNY 58 45 62 N7 30.02R ELIZABETH CITY SUNNY 57 43 59 N10 30.00S KITTY HAWK CLEAR 53 47 79 N9G17 29.99R MANTEO SUNNY 54 43 68 NE14 30.00R $$ NCZ045>047-081-094-103-104-072000- CENTRAL COAST CITY SKY/WX TMP DP RH WIND PRES REMARKS FRISCO SUNNY 54 46 74 VRB3 30.00F $$ NCZ095-097-098-100-101-072000- SOUTHERN COAST CITY SKY/WX TMP DP RH WIND PRES REMARKS BEAUFORT SUNNY 59 47 64 N9 30.01R CEDAR ISLAND NOT AVBL JACKSONVILLE MOSUNNY 60 45 57 NE6 30.01S PINEY ISLAND CLEAR N/A N/A N/A N9 30.01S WILMINGTON SUNNY 61 46 57 CALM 30.02S $$ NCZ011>013-027>030-043-044-078>080-089-090>093-098-072000- COASTAL PLAIN CITY SKY/WX TMP DP RH WIND PRES REMARKS AHOSKIE SUNNY 54 42 63 CALM 30.03R CLINTON SUNNY 60 45 58 NW3 30.03S ELIZABETHTOWN SUNNY 60 45 59 CALM 30.03R GOLDSBORO SUNNY 59 44 57 CALM 30.01R GREENVILLE SUNNY 57 43 58 CALM 30.04S HAVELOCK SUNNY 60 45 57 N7 30.02S KENANSVILLE NOT AVBL KINSTON SUNNY 59 43 55 N6 30.03S NEW BERN SUNNY 58 45 62 N3 30.02S RICHLANDS SUNNY 59 45 59 VRB3 30.02S ROCKY MOUNT SUNNY 58 44 60 NE3 30.02F WASHINGTON SUNNY 58 42 55 NW7 30.02R WHITEVILLE SUNNY 60 43 53 CALM 30.03S $$ AMZ130-135-150-152-154-156-158-170-250-252-270-ANZ085-086-088-633-658-670-072000- MARINE OBSERVATIONS STATION/POSITION TIME TEMP WIND PRES WAVE SWELL AIR SEA DIR/SP/G HT/PER HT/PER (UTC) (F) (DEG/KT/KT) (MB) (FT/S) (FT/S) CHESAPEAKE LIGHT NOT AVBL 64 E VA BEACH 1850 52 59 350/ 17/ 19 1014.2 8/11 5/11 DUCK 1900 51 54 10/ 16/ 18 1014.9 2 E DUCK NOT AVBL OREGON INLET 1900 52 55 350/ 12/ 16 1015.6 13E OREGON INLT NOT AVBL HATTERAS CG 1900 52 59 360/ 10/ 11 1015.5 DIAMOND BUOY 1850 56 76 350/ 14/ 21 1015.7 6/10 5/10 CAPE LOOKOUT 1900 54 10/ 13/ 15 1016.0 BEAUFORT LAB 1900 56 55 350/ 6/ 10 1015.1 30 SE NEW RVR IN 1908 54 71 40/ 10/ 14 1016.8 30 SE NEW RVR IN NOT AVBL 27 SE WRIGHTSVLE 1908 57 67 30/ 6/ 12 1016.5 5 SE WRIGHTSVLE 1908 56 62 70/ 4/ 8 1016.3 225 S CAPE HAT 1850 71 74 310/ 14/ 17 1014.7 7/ 8 7/ 8 41 SE CHARLESTON 1850 62 74 30/ 6/ 8 1016.5 2/ 8 2/ 8 $$

USA.gov is the U.S. government's official web portal to all federal, state and local government web resources and services.